STARLINK-1718, 46674

Orbit data source: Space-Track

STARLINK-1718, 46674 is a payload satellite owned by SpaceX/Seattle (US) in LEO that was launched on Sun, 18 Oct 2020 UTC via an FALCON 9 launch vehicle from the Air Force Eastern Test Range (AFETR). Payload-class satellites include a variety of spacecraft equipped with specific instruments for various scientific and technological missions. These include communications satellites like Starlink; space stations such as the ISS; scientific satellites like the Hubble; Earth observation satellites from companies like Planet Labs, Umbra, and HawkEye 360; GPS; miniature CubeSats for education and research; and military/defense satellites.

Loading next visibility...
Identifier
46674, 2020-073E
Orbit
LEO
Country
Flag of USUS
Related business
Manufacturer
SpaceX/Seattle
Mission
Partially operational Commercial Communications
Bus & Motor
STARLINK, Unknown motor
Mass
260 kg wet, ~248 kg dry
Launch date (UTC)
2020-10-18 (5 years ago)
Launch vehicle
FALCON 9
Launch site
Air Force Eastern Test Range (AFETR)
Object type
Payload
Rocket body
Debris
Shape & HBR
Box + 1 Pan, 10.1 m
Radar Cross Section
13.562 m², Large (>1 m²)

Expand to show TLE details & history
Last TLE update: 5 hours ago

TLE from 5 hours ago
0 STARLINK-1718
1 46674U 20073E   26071.83335647  .00171728  00000-0  23673-2 0  9993
2 46674  53.0493 212.7566 0004229 302.1274   0.6706 15.56136886  5944
Epoch: 2026-03-12T20:00Z
TLE epoch observation values (Epoch: 2026-03-12T20:00:01.999Z)
Latitude
-42.40323°
Longitude
59.18388°
Altitude
410.126 km
Speed
7.666 km/s
True Right ascension
11h 18m 40s
True Declination
-42° 13' 24"
Sunlit
Object was in full shadow at epoch
Visualization orbit readout
Latitude
Unknown
Longitude
Unknown
Altitude
Unknown
Speed
Unknown
Apparent Right ascension
Unknown
Apparent Declination
Unknown
Sunlit
N/A
Visualization observer readout
Local Sidereal Time
05:10:58
Azimuth
Unknown
Elevation
Unknown
Doppler factor
Unknown
Orbital elements
Apogee altitude
401.993 km
Perigee altitude
396.261 km
Semi-major axis
6,777.264 km
Eccentricity
0.00042
Inclination
53.0493°
RAAN
212.7566°
Arg. of periapsis
302.1274°
True anomaly
0.67117°
Mean anomaly
0.6706°
Eccentric anomaly
0.67088°
Mean motion
3.89011 °/min
Orbital period
92.54 mins
BSTAR
0.0023673
Loading maneuver chart data...
Computing Atmospheric mass density...
Loading historical data...
Loading historical data...
Loading historical data...
Loading historical data...
Loading historical data...
Loading historical data...
Loading historical data...

Documentation

Showing up to 5 results
|